Location: Ash Swamp
(41.5170°N, 74.6157°W)
Time: 06:39:39
(UTC+00:00)

ERS-2 - Pass Details

Date: 14 July 2020
Orbit: 493 x 499 km, 98.5° (Epoch: 04 August)

Event Time Altitude Azimuth Distance (km) Brightness Sun altitude
Rises 08:45:09 0° 177° (S) 2,566 5.4 -8.8°
Reaches altitude 10° 08:47:16 10° 183° (S) 1,687 4.4 -8.5°
Maximum altitude 08:50:47 49° 259° (W) 648 2.3 -8.0°
Drops below altitude 10° 08:54:20 10° 335° (NNW) 1,699 5.0 -7.5°
Sets 08:56:28 0° 341° (NNW) 2,586 6.0 -7.2°
